Погода в Энсенаде

Мексика     31°51′51″N   116°36′14″W
темп.,
°C
ветер,
м/с
пор.,
м/с
влажн.,
%
обл.,
%
осадки,
мм/ч
давл.,
гПа
погр.,
м
8 марта, пн
пн801:00+9зсз129379 0.0 101868
04:00+10ссз227990 0.0 1018505
07:00+10св1172100 0.0 1020309
10:00+14зсз325390 0.0 1021677
13:00+15зсз435889 0.0 1020589
16:00+13зсз446894 0.0 1019562
19:00+9сз1287100 0.0 1020129
22:00+9ссз1292100 0.0 1021110
9 марта, вт
вт901:00+8св019198 0.0 102029
04:00+7зсз229378 0.0 102038
07:00+9сз11850 0.0 1022100
10:00+13зсз67540 0.0 10221134
13:00+14зсз78490 0.0 10211173
16:00+12зсз78590 0.0 10201017
19:00+8сз34810 0.0 102298
22:00+7сз12891 0.1 102243
10 марта, ср
ср1001:00+6сз018918 0.1 1021107
04:00+8зсз128639 0.4 1020154
07:00+9зсз248266 0.6 1020341
10:00+11з566863 1.2 1021950
13:00+13з886656 1.1 10191098
16:00+11зсз777274 2.0 1018998
19:00+8зсз478322 0.3 1019194
22:00+7зсз348622 0.6 101993
11 марта, чт
чт1101:00+6зсз23876 0.4 101861
04:00+6сз228721 0.8 101874
07:00+8юв117510 0.2 101867
10:00+11юз335615 0.4 10181267
13:00+8зюз348699 1.8 1016440
16:00+7зсз2392100 10.4 1016424
19:00+5юз019271 1.1 101628
22:00+4ююв119136 1.3 101732
12 марта, пт
пт1201:00+4ююв119116 0.1 101631
04:00+3ююв129223 0.4 101628
07:00+6вюв228239 0.3 101796
10:00+10зюз235449 0.4 10181213
13:00+11з66500 0.0 10181270
16:00+11зсз565427 0.1 10181352
19:00+7зсз237812 0.0 101954
22:00+6сз018412 0.0 102051